Year,Month,Day,Hour,Minute,Value (Times are PST for temperature in C)
2017,05,24,00,00,9.70
2017,05,24,00,01,9.70
2017,05,24,00,02,9.70
2017,05,24,00,03,9.70
2017,05,24,00,04,9.70
2017,05,24,00,05,9.70
2017,05,24,00,06,9.70
2017,05,24,00,07,9.70
2017,05,24,00,08,9.70
2017,05,24,00,09,9.70
2017,05,24,00,10,9.70
2017,05,24,00,11,9.70
2017,05,24,00,12,9.70
2017,05,24,00,13,9.70
2017,05,24,00,14,9.70
2017,05,24,00,15,9.70
2017,05,24,00,16,9.70
2017,05,24,00,17,9.60
2017,05,24,00,18,9.60
2017,05,24,00,19,9.60
2017,05,24,00,20,9.60
2017,05,24,00,21,9.60
2017,05,24,00,22,9.60
2017,05,24,00,23,9.50
2017,05,24,00,24,9.50
2017,05,24,00,25,9.50
2017,05,24,00,26,9.60
2017,05,24,00,27,9.60
2017,05,24,00,28,9.60
2017,05,24,00,29,9.60
2017,05,24,00,30,9.60
2017,05,24,00,31,9.60
2017,05,24,00,32,9.60
2017,05,24,00,33,9.50
2017,05,24,00,34,9.50
2017,05,24,00,35,9.50
2017,05,24,00,36,9.50
2017,05,24,00,37,9.50
2017,05,24,00,38,9.50
2017,05,24,00,39,9.50
2017,05,24,00,40,9.50
2017,05,24,00,41,9.50
2017,05,24,00,42,9.40
2017,05,24,00,43,9.40
2017,05,24,00,44,9.40
2017,05,24,00,45,9.40
2017,05,24,00,46,9.40
2017,05,24,00,47,9.40
2017,05,24,00,48,9.40
2017,05,24,00,49,9.40
2017,05,24,00,50,9.30
2017,05,24,00,51,9.30
2017,05,24,00,52,9.30
2017,05,24,00,53,9.30
2017,05,24,00,54,9.30
2017,05,24,00,55,9.30
2017,05,24,00,56,9.30
2017,05,24,00,57,9.30
2017,05,24,00,58,9.30
2017,05,24,00,59,9.30
2017,05,24,01,00,9.30
2017,05,24,01,01,9.20
2017,05,24,01,02,9.20
2017,05,24,01,03,9.20
2017,05,24,01,04,9.20
2017,05,24,01,05,9.20
2017,05,24,01,06,9.20
2017,05,24,01,07,9.20
2017,05,24,01,08,9.20
2017,05,24,01,09,9.20
2017,05,24,01,10,9.20
2017,05,24,01,11,9.20
2017,05,24,01,12,9.20
2017,05,24,01,13,9.10
2017,05,24,01,14,9.10
2017,05,24,01,15,9.10
2017,05,24,01,16,9.10
2017,05,24,01,17,9.10
2017,05,24,01,18,9.10
2017,05,24,01,19,9.10
2017,05,24,01,20,9.10
2017,05,24,01,21,9.10
2017,05,24,01,22,9.10
2017,05,24,01,23,9.10
2017,05,24,01,24,9.10
2017,05,24,01,25,9.10
2017,05,24,01,26,9.10
2017,05,24,01,27,9.10
2017,05,24,01,28,9.10
2017,05,24,01,29,9.10
2017,05,24,01,30,9.10
2017,05,24,01,31,9.10
2017,05,24,01,32,9.10
2017,05,24,01,33,9.10
2017,05,24,01,34,9.10
2017,05,24,01,35,9.10
2017,05,24,01,36,9.10
2017,05,24,01,37,9.10
2017,05,24,01,38,9.10
2017,05,24,01,39,9.10
2017,05,24,01,40,9.10
2017,05,24,01,41,9.20
2017,05,24,01,42,9.20
2017,05,24,01,43,9.20
2017,05,24,01,44,9.20
2017,05,24,01,45,9.30
2017,05,24,01,46,9.30
2017,05,24,01,47,9.30
2017,05,24,01,48,9.30
2017,05,24,01,49,9.30
2017,05,24,01,50,9.30
2017,05,24,01,51,9.30
2017,05,24,01,52,9.30
2017,05,24,01,53,9.30
2017,05,24,01,54,9.30
2017,05,24,01,55,9.30
2017,05,24,01,56,9.30
2017,05,24,01,57,9.40
2017,05,24,01,58,9.40
2017,05,24,01,59,9.40
2017,05,24,02,00,9.30
2017,05,24,02,01,9.30
2017,05,24,02,02,9.30
2017,05,24,02,03,9.30
2017,05,24,02,04,9.30
2017,05,24,02,05,9.30
2017,05,24,02,06,9.30
2017,05,24,02,07,9.30
2017,05,24,02,08,9.30
2017,05,24,02,09,9.30
2017,05,24,02,10,9.30
2017,05,24,02,11,9.20
2017,05,24,02,12,9.20
2017,05,24,02,13,9.20
2017,05,24,02,14,9.20
2017,05,24,02,15,9.20
2017,05,24,02,16,9.20
2017,05,24,02,17,9.10
2017,05,24,02,18,9.10
2017,05,24,02,19,9.10
2017,05,24,02,20,9.10
2017,05,24,02,21,9.10
2017,05,24,02,22,9.00
2017,05,24,02,23,9.00
2017,05,24,02,24,9.00
2017,05,24,02,25,9.00
2017,05,24,02,26,9.00
2017,05,24,02,27,9.00
2017,05,24,02,28,8.90
2017,05,24,02,29,8.90
2017,05,24,02,30,8.90
2017,05,24,02,31,8.90
2017,05,24,02,32,9.00
2017,05,24,02,33,9.00
2017,05,24,02,34,9.00
2017,05,24,02,35,9.00
2017,05,24,02,36,9.00
2017,05,24,02,37,9.10
2017,05,24,02,38,9.10
2017,05,24,02,39,9.10
2017,05,24,02,40,9.10
2017,05,24,02,41,9.10
2017,05,24,02,42,9.10
2017,05,24,02,43,9.10
2017,05,24,02,44,9.10
2017,05,24,02,45,9.10
2017,05,24,02,46,9.10
2017,05,24,02,47,9.10
2017,05,24,02,48,9.10
2017,05,24,02,49,9.10
2017,05,24,02,50,9.10
2017,05,24,02,51,9.10
2017,05,24,02,52,9.10
2017,05,24,02,53,9.10
2017,05,24,02,54,9.10
2017,05,24,02,55,9.10
2017,05,24,02,56,9.10
2017,05,24,02,57,9.10
2017,05,24,02,58,9.00
2017,05,24,02,59,9.00
2017,05,24,03,00,9.00
2017,05,24,03,01,9.00
2017,05,24,03,02,9.00
2017,05,24,03,03,8.90
2017,05,24,03,04,8.90
2017,05,24,03,05,9.00
2017,05,24,03,06,9.00
2017,05,24,03,07,9.00
2017,05,24,03,08,9.00
2017,05,24,03,09,9.00
2017,05,24,03,10,9.00
2017,05,24,03,11,9.00
2017,05,24,03,12,9.10
2017,05,24,03,13,9.10
2017,05,24,03,14,9.10
2017,05,24,03,15,9.10
2017,05,24,03,16,9.10
2017,05,24,03,17,9.10
2017,05,24,03,18,9.10
2017,05,24,03,19,9.10
2017,05,24,03,20,9.10
2017,05,24,03,21,9.10
2017,05,24,03,22,9.10
2017,05,24,03,23,9.10
2017,05,24,03,24,9.10
2017,05,24,03,25,9.10
2017,05,24,03,26,9.10
2017,05,24,03,27,9.10
2017,05,24,03,28,9.20
2017,05,24,03,29,9.20
2017,05,24,03,30,9.20
2017,05,24,03,31,9.20
2017,05,24,03,32,9.20
2017,05,24,03,33,9.20
2017,05,24,03,34,9.20
2017,05,24,03,35,9.20
2017,05,24,03,36,9.20
2017,05,24,03,37,9.20
2017,05,24,03,38,9.30
2017,05,24,03,39,9.30
2017,05,24,03,40,9.30
2017,05,24,03,41,9.40
2017,05,24,03,42,9.40
2017,05,24,03,43,9.50
2017,05,24,03,44,9.60
2017,05,24,03,45,9.70
2017,05,24,03,46,9.80
2017,05,24,03,47,9.80
2017,05,24,03,48,9.80
2017,05,24,03,49,9.80
2017,05,24,03,50,9.70
2017,05,24,03,51,9.70
2017,05,24,03,52,9.70
2017,05,24,03,53,9.70
2017,05,24,03,54,9.70
2017,05,24,03,55,9.70
2017,05,24,03,56,9.70
2017,05,24,03,57,9.70
2017,05,24,03,58,9.70
2017,05,24,03,59,9.60
2017,05,24,04,00,9.60
2017,05,24,04,01,9.60
2017,05,24,04,02,9.60
2017,05,24,04,03,9.60
2017,05,24,04,04,9.60
2017,05,24,04,05,9.60
2017,05,24,04,06,9.60
2017,05,24,04,07,9.50
2017,05,24,04,08,9.50
2017,05,24,04,09,9.50
2017,05,24,04,10,9.50
2017,05,24,04,11,9.40
2017,05,24,04,12,9.40
2017,05,24,04,13,9.40
2017,05,24,04,14,9.40
2017,05,24,04,15,9.40
2017,05,24,04,16,9.40
2017,05,24,04,17,9.40
2017,05,24,04,18,9.30
2017,05,24,04,19,9.30
2017,05,24,04,20,9.30
2017,05,24,04,21,9.30
2017,05,24,04,22,9.30
2017,05,24,04,23,9.30
2017,05,24,04,24,9.30
2017,05,24,04,25,9.30
2017,05,24,04,26,9.30
2017,05,24,04,27,9.30
2017,05,24,04,28,9.30
2017,05,24,04,29,9.30
2017,05,24,04,30,9.30
2017,05,24,04,31,9.30
2017,05,24,04,32,9.30
2017,05,24,04,33,9.30
2017,05,24,04,34,9.30
2017,05,24,04,35,9.30
2017,05,24,04,36,9.30
2017,05,24,04,37,9.30
2017,05,24,04,38,9.30
2017,05,24,04,39,9.30
2017,05,24,04,40,9.30
2017,05,24,04,41,9.30
2017,05,24,04,42,9.30
2017,05,24,04,43,9.30
2017,05,24,04,44,9.30
2017,05,24,04,45,9.30
2017,05,24,04,46,9.30
2017,05,24,04,47,9.40
2017,05,24,04,48,9.40
2017,05,24,04,49,9.40
2017,05,24,04,50,9.40
2017,05,24,04,51,9.50
2017,05,24,04,52,9.50
2017,05,24,04,53,9.50
2017,05,24,04,54,9.60
2017,05,24,04,55,9.60
2017,05,24,04,56,9.60
2017,05,24,04,57,9.60
2017,05,24,04,58,9.60
2017,05,24,04,59,9.60
2017,05,24,05,00,9.60
2017,05,24,05,01,9.60
2017,05,24,05,02,9.60
2017,05,24,05,03,9.70
2017,05,24,05,04,9.70
2017,05,24,05,05,9.70
2017,05,24,05,06,9.70
2017,05,24,05,07,9.70
2017,05,24,05,08,9.70
2017,05,24,05,09,9.70
2017,05,24,05,10,9.70
2017,05,24,05,11,9.80
2017,05,24,05,12,9.80
2017,05,24,05,13,9.80
2017,05,24,05,14,9.80
2017,05,24,05,15,9.80
2017,05,24,05,16,9.80
2017,05,24,05,17,9.80
2017,05,24,05,18,9.80
2017,05,24,05,19,9.80
2017,05,24,05,20,9.80
2017,05,24,05,21,9.80
2017,05,24,05,22,9.80
2017,05,24,05,23,9.80
2017,05,24,05,24,9.80
2017,05,24,05,25,9.70
2017,05,24,05,26,9.70
2017,05,24,05,27,9.70
2017,05,24,05,28,9.70
2017,05,24,05,29,9.70
2017,05,24,05,30,9.70
2017,05,24,05,31,9.70
2017,05,24,05,32,9.70
2017,05,24,05,33,9.70
2017,05,24,05,34,9.70
2017,05,24,05,35,9.70
2017,05,24,05,36,9.70
2017,05,24,05,37,9.70
2017,05,24,05,38,9.70
2017,05,24,05,39,9.70
2017,05,24,05,40,9.70
2017,05,24,05,41,9.70
2017,05,24,05,42,9.70
2017,05,24,05,43,9.70
2017,05,24,05,44,9.70
2017,05,24,05,45,9.70
2017,05,24,05,46,9.70
2017,05,24,05,47,9.80
2017,05,24,05,48,9.80
2017,05,24,05,49,9.80
2017,05,24,05,50,9.80
2017,05,24,05,51,9.80
2017,05,24,05,52,9.90
2017,05,24,05,53,9.90
2017,05,24,05,54,9.90
2017,05,24,05,55,9.90
2017,05,24,05,56,10.00
2017,05,24,05,57,10.00
2017,05,24,05,58,10.00
2017,05,24,05,59,10.00
2017,05,24,06,00,10.00
2017,05,24,06,01,10.10
2017,05,24,06,02,10.10
2017,05,24,06,03,10.10
2017,05,24,06,04,10.10
2017,05,24,06,05,10.10
2017,05,24,06,06,10.10
2017,05,24,06,07,10.10
2017,05,24,06,08,10.10
2017,05,24,06,09,10.10
2017,05,24,06,10,10.10
2017,05,24,06,11,10.10
2017,05,24,06,12,10.20
2017,05,24,06,13,10.20
2017,05,24,06,14,10.20
2017,05,24,06,15,10.20
2017,05,24,06,16,10.20
2017,05,24,06,17,10.20
2017,05,24,06,18,10.30
2017,05,24,06,19,10.30
2017,05,24,06,20,10.30
2017,05,24,06,21,10.30
2017,05,24,06,22,10.30
2017,05,24,06,23,10.40
2017,05,24,06,24,10.40
2017,05,24,06,25,10.50
2017,05,24,06,26,10.50
2017,05,24,06,27,10.60
2017,05,24,06,28,10.70
2017,05,24,06,29,10.70
2017,05,24,06,30,10.80
2017,05,24,06,31,10.80
2017,05,24,06,32,10.90
2017,05,24,06,33,10.90
2017,05,24,06,34,11.00
2017,05,24,06,35,11.00
2017,05,24,06,36,11.10
2017,05,24,06,37,11.10
2017,05,24,06,38,11.10
2017,05,24,06,39,11.20
2017,05,24,06,40,11.20
2017,05,24,06,41,11.20
2017,05,24,06,42,11.20
2017,05,24,06,43,11.20
2017,05,24,06,44,11.20
2017,05,24,06,45,11.20
2017,05,24,06,46,11.30
2017,05,24,06,47,11.30
2017,05,24,06,48,11.30
2017,05,24,06,49,11.30
2017,05,24,06,50,11.30
2017,05,24,06,51,11.30
2017,05,24,06,52,11.30
2017,05,24,06,53,11.30
2017,05,24,06,54,11.30
2017,05,24,06,55,11.30
2017,05,24,06,56,11.40
2017,05,24,06,57,11.40
2017,05,24,06,58,11.40
2017,05,24,06,59,11.40
2017,05,24,07,00,11.40
2017,05,24,07,01,11.40
2017,05,24,07,02,11.40
2017,05,24,07,03,11.40
2017,05,24,07,04,11.40
2017,05,24,07,05,11.40
2017,05,24,07,06,11.30
2017,05,24,07,07,11.40
2017,05,24,07,08,11.30
2017,05,24,07,09,11.30
2017,05,24,07,10,11.30
2017,05,24,07,11,11.30
2017,05,24,07,12,11.30
2017,05,24,07,13,11.30
2017,05,24,07,14,11.30
2017,05,24,07,15,11.30
2017,05,24,07,16,11.30
2017,05,24,07,17,11.30
2017,05,24,07,18,11.30
2017,05,24,07,19,11.30
2017,05,24,07,20,11.30
2017,05,24,07,21,11.30
2017,05,24,07,22,11.30
2017,05,24,07,23,11.30
2017,05,24,07,24,11.30
2017,05,24,07,25,11.30
2017,05,24,07,26,11.30
2017,05,24,07,27,11.30
2017,05,24,07,28,11.30
2017,05,24,07,29,11.30
2017,05,24,07,30,11.30
2017,05,24,07,31,11.30
2017,05,24,07,32,11.40
2017,05,24,07,33,11.40
2017,05,24,07,34,11.40
2017,05,24,07,35,11.40
2017,05,24,07,36,11.50
2017,05,24,07,37,11.50
2017,05,24,07,38,11.60
2017,05,24,07,39,11.60
2017,05,24,07,40,11.60
2017,05,24,07,41,11.60
2017,05,24,07,42,11.70
2017,05,24,07,43,11.70
2017,05,24,07,44,11.70
2017,05,24,07,45,11.80
2017,05,24,07,46,11.80
2017,05,24,07,47,11.80
2017,05,24,07,48,11.80
2017,05,24,07,49,11.90
2017,05,24,07,50,11.90
2017,05,24,07,51,11.90
2017,05,24,07,52,11.90
2017,05,24,07,53,11.90
2017,05,24,07,54,11.90
2017,05,24,07,55,12.00
2017,05,24,07,56,12.00
2017,05,24,07,57,12.00
2017,05,24,07,58,12.00
2017,05,24,07,59,12.00
2017,05,24,08,00,12.00
2017,05,24,08,01,12.00
2017,05,24,08,02,12.10
2017,05,24,08,03,12.10
2017,05,24,08,04,12.10
2017,05,24,08,05,12.10
2017,05,24,08,06,12.10
2017,05,24,08,07,12.10
2017,05,24,08,08,12.10
2017,05,24,08,09,12.10
2017,05,24,08,10,12.10
2017,05,24,08,11,12.20
2017,05,24,08,12,12.20
2017,05,24,08,13,12.20
2017,05,24,08,14,12.20
2017,05,24,08,15,12.30
2017,05,24,08,16,12.30
2017,05,24,08,17,12.40
2017,05,24,08,18,12.50
2017,05,24,08,19,12.50
2017,05,24,08,20,12.60
2017,05,24,08,21,12.70
2017,05,24,08,22,12.80
2017,05,24,08,23,12.80
2017,05,24,08,24,12.90
2017,05,24,08,25,13.00
2017,05,24,08,26,13.10
2017,05,24,08,27,13.20
2017,05,24,08,28,13.20
2017,05,24,08,29,13.20
2017,05,24,08,30,13.30
2017,05,24,08,31,13.30
2017,05,24,08,32,13.30
2017,05,24,08,33,13.30
2017,05,24,08,34,13.40
2017,05,24,08,35,13.40
2017,05,24,08,36,13.40
2017,05,24,08,37,13.50
2017,05,24,08,38,13.60
2017,05,24,08,39,13.60
2017,05,24,08,40,13.70
2017,05,24,08,41,13.60
2017,05,24,08,42,13.60
2017,05,24,08,43,13.60
2017,05,24,08,44,13.70
2017,05,24,08,45,13.70
2017,05,24,08,46,13.70
2017,05,24,08,47,13.70
2017,05,24,08,48,13.70
2017,05,24,08,49,13.60
2017,05,24,08,50,13.60
2017,05,24,08,51,13.60
2017,05,24,08,52,13.60
2017,05,24,08,53,13.60
2017,05,24,08,54,13.60
2017,05,24,08,55,13.60
2017,05,24,08,56,13.60
2017,05,24,08,57,13.60
2017,05,24,08,58,13.70
2017,05,24,08,59,13.70
2017,05,24,09,00,13.70
2017,05,24,09,01,13.80
2017,05,24,09,02,13.80
2017,05,24,09,03,13.80
2017,05,24,09,04,13.80
2017,05,24,09,05,13.80
2017,05,24,09,06,13.80
2017,05,24,09,07,13.80
2017,05,24,09,08,13.70
2017,05,24,09,09,13.60
2017,05,24,09,10,13.60
2017,05,24,09,11,13.60
2017,05,24,09,12,13.60
2017,05,24,09,13,13.60
2017,05,24,09,14,13.60
2017,05,24,09,15,13.70
2017,05,24,09,16,13.70
2017,05,24,09,17,13.70
2017,05,24,09,18,13.70
2017,05,24,09,19,13.70
2017,05,24,09,20,13.80
2017,05,24,09,21,13.80
2017,05,24,09,22,13.80
2017,05,24,09,23,13.70
2017,05,24,09,24,13.70
2017,05,24,09,25,13.70
2017,05,24,09,26,13.70
2017,05,24,09,27,13.70
2017,05,24,09,28,13.80
2017,05,24,09,29,13.80
2017,05,24,09,30,13.90
2017,05,24,09,31,13.90
2017,05,24,09,32,13.90
2017,05,24,09,33,13.90
2017,05,24,09,34,13.90
2017,05,24,09,35,13.90
2017,05,24,09,36,13.90
2017,05,24,09,37,13.80
2017,05,24,09,38,13.80
2017,05,24,09,39,13.80
2017,05,24,09,40,13.80
2017,05,24,09,41,13.80
2017,05,24,09,42,13.80
2017,05,24,09,43,13.80
2017,05,24,09,44,13.80
2017,05,24,09,45,13.80
2017,05,24,09,46,13.70
2017,05,24,09,47,13.70
2017,05,24,09,48,13.80
2017,05,24,09,49,13.80
2017,05,24,09,50,13.80
2017,05,24,09,51,13.80
2017,05,24,09,52,13.90
2017,05,24,09,53,13.90
2017,05,24,09,54,13.80
2017,05,24,09,55,13.80
2017,05,24,09,56,13.80
2017,05,24,09,57,13.80
2017,05,24,09,58,13.80
2017,05,24,09,59,13.70
2017,05,24,10,00,13.70
2017,05,24,10,01,13.70
2017,05,24,10,02,13.60
2017,05,24,10,03,13.60
2017,05,24,10,04,13.70
2017,05,24,10,05,13.70
2017,05,24,10,06,13.70
2017,05,24,10,07,13.70
2017,05,24,10,08,13.70
2017,05,24,10,09,13.80
2017,05,24,10,10,13.90
2017,05,24,10,11,14.00
2017,05,24,10,12,14.10
2017,05,24,10,13,14.20
2017,05,24,10,14,14.20
2017,05,24,10,15,14.20
2017,05,24,10,16,14.20
2017,05,24,10,17,14.20
2017,05,24,10,18,14.20
2017,05,24,10,19,14.10
2017,05,24,10,20,14.10
2017,05,24,10,21,14.10
2017,05,24,10,22,14.10
2017,05,24,10,23,14.10
2017,05,24,10,24,14.10
2017,05,24,10,25,14.10
2017,05,24,10,26,14.10
2017,05,24,10,27,14.10
2017,05,24,10,28,14.10
2017,05,24,10,29,14.20
2017,05,24,10,30,14.20
2017,05,24,10,31,14.20
2017,05,24,10,32,14.30
2017,05,24,10,33,14.30
2017,05,24,10,34,14.30
2017,05,24,10,35,14.30
2017,05,24,10,36,14.30
2017,05,24,10,37,14.40
2017,05,24,10,38,14.40
2017,05,24,10,39,14.50
2017,05,24,10,40,14.60
2017,05,24,10,41,14.60
2017,05,24,10,42,14.60
2017,05,24,10,43,14.70
2017,05,24,10,44,14.70
2017,05,24,10,45,14.70
2017,05,24,10,46,14.70
2017,05,24,10,47,14.70
2017,05,24,10,48,14.70
2017,05,24,10,49,14.70
2017,05,24,10,50,14.70
2017,05,24,10,51,14.70
2017,05,24,10,52,14.70
2017,05,24,10,53,14.60
2017,05,24,10,54,14.50
2017,05,24,10,55,14.50
2017,05,24,10,56,14.40
2017,05,24,10,57,14.40
2017,05,24,10,58,14.50
2017,05,24,10,59,14.50
2017,05,24,11,00,14.50
2017,05,24,11,01,14.50
2017,05,24,11,02,14.50
2017,05,24,11,03,14.60
2017,05,24,11,04,14.60
2017,05,24,11,05,14.70
2017,05,24,11,06,14.80
2017,05,24,11,07,14.90
2017,05,24,11,08,15.00
2017,05,24,11,09,14.90
2017,05,24,11,10,14.90
2017,05,24,11,11,14.80
2017,05,24,11,12,14.80
2017,05,24,11,13,14.80
2017,05,24,11,14,14.80
2017,05,24,11,15,14.70
2017,05,24,11,16,14.70
2017,05,24,11,17,14.70
2017,05,24,11,18,14.80
2017,05,24,11,19,14.80
2017,05,24,11,20,14.90
2017,05,24,11,21,15.00
2017,05,24,11,22,15.10
2017,05,24,11,23,15.10
2017,05,24,11,24,15.10
2017,05,24,11,25,15.10
2017,05,24,11,26,15.20
2017,05,24,11,27,15.30
2017,05,24,11,28,15.30
2017,05,24,11,29,15.40
2017,05,24,11,30,15.40
2017,05,24,11,31,15.40
2017,05,24,11,32,15.40
2017,05,24,11,33,15.40
2017,05,24,11,34,15.50
2017,05,24,11,35,15.60
2017,05,24,11,36,15.60
2017,05,24,11,37,15.50
2017,05,24,11,38,15.40
2017,05,24,11,39,15.40
2017,05,24,11,40,15.50
2017,05,24,11,41,15.50
2017,05,24,11,42,15.50
2017,05,24,11,43,15.50
2017,05,24,11,44,15.50
2017,05,24,11,45,15.60
2017,05,24,11,46,15.60
2017,05,24,11,47,15.50
2017,05,24,11,48,15.40
2017,05,24,11,49,15.40
2017,05,24,11,50,15.40
2017,05,24,11,51,15.40
2017,05,24,11,52,15.50
2017,05,24,11,53,15.60
2017,05,24,11,54,15.70
2017,05,24,11,55,15.70
2017,05,24,11,56,15.70
2017,05,24,11,57,15.70
2017,05,24,11,58,15.60
2017,05,24,11,59,15.50
2017,05,24,12,00,15.50
2017,05,24,12,01,15.50
2017,05,24,12,02,15.60
2017,05,24,12,03,15.70
2017,05,24,12,04,15.80
2017,05,24,12,05,15.90
2017,05,24,12,06,15.90
2017,05,24,12,07,15.90
2017,05,24,12,08,15.90
2017,05,24,12,09,15.80
2017,05,24,12,10,15.80
2017,05,24,12,11,15.80
2017,05,24,12,12,15.80
2017,05,24,12,13,15.80
2017,05,24,12,14,15.70
2017,05,24,12,15,15.60
2017,05,24,12,16,15.60
2017,05,24,12,17,15.60
2017,05,24,12,18,15.60
2017,05,24,12,19,15.70
2017,05,24,12,20,15.70
2017,05,24,12,21,15.80
2017,05,24,12,22,15.80
2017,05,24,12,23,15.70
2017,05,24,12,24,15.60
2017,05,24,12,25,15.50
2017,05,24,12,26,15.40
2017,05,24,12,27,15.40
2017,05,24,12,28,15.40
2017,05,24,12,29,15.50
2017,05,24,12,30,15.60
2017,05,24,12,31,15.70
2017,05,24,12,32,15.70
2017,05,24,12,33,15.60
2017,05,24,12,34,15.60
2017,05,24,12,35,15.50
2017,05,24,12,36,15.40
2017,05,24,12,37,15.30
2017,05,24,12,38,15.20
2017,05,24,12,39,15.10
2017,05,24,12,40,15.20
2017,05,24,12,41,15.20
2017,05,24,12,42,15.30
2017,05,24,12,43,15.50
2017,05,24,12,44,15.70
2017,05,24,12,45,15.80
2017,05,24,12,46,15.90
2017,05,24,12,47,16.00
2017,05,24,12,48,16.00
2017,05,24,12,49,15.90
2017,05,24,12,50,15.70
2017,05,24,12,51,15.60
2017,05,24,12,52,15.60
2017,05,24,12,53,15.70
2017,05,24,12,54,15.80
2017,05,24,12,55,15.90
2017,05,24,12,56,15.90
2017,05,24,12,57,16.00
2017,05,24,12,58,16.00
2017,05,24,12,59,16.00
2017,05,24,13,00,16.00
2017,05,24,13,01,16.00
2017,05,24,13,02,16.00
2017,05,24,13,03,16.00
2017,05,24,13,04,16.00
2017,05,24,13,05,15.90
2017,05,24,13,06,15.80
2017,05,24,13,07,15.70
2017,05,24,13,08,15.80
2017,05,24,13,09,15.70
2017,05,24,13,10,15.70
2017,05,24,13,11,15.70
2017,05,24,13,12,15.70
2017,05,24,13,13,15.70
2017,05,24,13,14,15.70
2017,05,24,13,15,15.70
2017,05,24,13,16,15.70
2017,05,24,13,17,15.70
2017,05,24,13,18,15.70
2017,05,24,13,19,15.80
2017,05,24,13,20,15.80
2017,05,24,13,21,15.90
2017,05,24,13,22,15.90
2017,05,24,13,23,15.90
2017,05,24,13,24,15.90
2017,05,24,13,25,15.90
2017,05,24,13,26,16.00
2017,05,24,13,27,15.90
2017,05,24,13,28,15.90
2017,05,24,13,29,16.00
2017,05,24,13,30,16.00
2017,05,24,13,31,16.10
2017,05,24,13,32,16.20
2017,05,24,13,33,16.20
2017,05,24,13,34,16.10
2017,05,24,13,35,16.10
2017,05,24,13,36,16.10
2017,05,24,13,37,16.10
2017,05,24,13,38,16.10
2017,05,24,13,39,16.20
2017,05,24,13,40,16.20
2017,05,24,13,41,16.20
2017,05,24,13,42,16.20
2017,05,24,13,43,16.10
2017,05,24,13,44,16.10
2017,05,24,13,45,16.10
2017,05,24,13,46,16.00
2017,05,24,13,47,16.00
2017,05,24,13,48,16.00
2017,05,24,13,49,15.90
2017,05,24,13,50,15.90
2017,05,24,13,51,15.90
2017,05,24,13,52,16.00
2017,05,24,13,53,16.10
2017,05,24,13,54,16.20
2017,05,24,13,55,16.20
2017,05,24,13,56,16.20
2017,05,24,13,57,16.20
2017,05,24,13,58,16.30
2017,05,24,13,59,16.30
2017,05,24,14,00,16.40
2017,05,24,14,01,16.50
2017,05,24,14,02,16.60
2017,05,24,14,03,16.60
2017,05,24,14,04,16.50
2017,05,24,14,05,16.40
2017,05,24,14,06,16.30
2017,05,24,14,07,16.30
2017,05,24,14,08,16.40
2017,05,24,14,09,16.50
2017,05,24,14,10,16.40
2017,05,24,14,11,16.50
2017,05,24,14,12,16.50
2017,05,24,14,13,16.30
2017,05,24,14,14,16.30
2017,05,24,14,15,16.30
2017,05,24,14,16,16.30
2017,05,24,14,17,16.40
2017,05,24,14,18,16.50
2017,05,24,14,19,16.40
2017,05,24,14,20,16.40
2017,05,24,14,21,16.40
2017,05,24,14,22,16.40
2017,05,24,14,23,16.40
2017,05,24,14,24,16.40
2017,05,24,14,25,16.30
2017,05,24,14,26,16.30
2017,05,24,14,27,16.30
2017,05,24,14,28,16.30
2017,05,24,14,29,16.40
2017,05,24,14,30,16.40
2017,05,24,14,31,16.40
2017,05,24,14,32,16.30
2017,05,24,14,33,16.30
2017,05,24,14,34,16.30
2017,05,24,14,35,16.40
2017,05,24,14,36,16.50
2017,05,24,14,37,16.50
2017,05,24,14,38,16.70
2017,05,24,14,39,16.70
2017,05,24,14,40,16.60
2017,05,24,14,41,16.60
2017,05,24,14,42,16.60
2017,05,24,14,43,16.50
2017,05,24,14,44,16.50
2017,05,24,14,45,16.40
2017,05,24,14,46,16.40
2017,05,24,14,47,16.40
2017,05,24,14,48,16.40
2017,05,24,14,49,16.40
2017,05,24,14,50,16.50
2017,05,24,14,51,16.50
2017,05,24,14,52,16.60
2017,05,24,14,53,16.60
2017,05,24,14,54,16.70
2017,05,24,14,55,16.70
2017,05,24,14,56,16.70
2017,05,24,14,57,16.70
2017,05,24,14,58,16.80
2017,05,24,14,59,16.80
2017,05,24,15,00,16.80
2017,05,24,15,01,16.70
2017,05,24,15,02,16.70
2017,05,24,15,03,16.70
2017,05,24,15,04,16.70
2017,05,24,15,05,16.70
2017,05,24,15,06,16.70
2017,05,24,15,07,16.70
2017,05,24,15,08,16.70
2017,05,24,15,09,16.80
2017,05,24,15,10,16.80
2017,05,24,15,11,16.80
2017,05,24,15,12,16.70
2017,05,24,15,13,16.60
2017,05,24,15,14,16.50
2017,05,24,15,15,16.50
2017,05,24,15,16,16.50
2017,05,24,15,17,16.60
2017,05,24,15,18,16.60
2017,05,24,15,19,16.50
2017,05,24,15,20,16.50
2017,05,24,15,21,16.50
2017,05,24,15,22,16.40
2017,05,24,15,23,16.50
2017,05,24,15,24,16.50
2017,05,24,15,25,16.70
2017,05,24,15,26,16.80
2017,05,24,15,27,16.90
2017,05,24,15,28,16.90
2017,05,24,15,29,16.90
2017,05,24,15,30,16.70
2017,05,24,15,31,16.60
2017,05,24,15,32,16.50
2017,05,24,15,33,16.50
2017,05,24,15,34,16.60
2017,05,24,15,35,16.60
2017,05,24,15,36,16.60
2017,05,24,15,37,16.60
2017,05,24,15,38,16.70
2017,05,24,15,39,16.80
2017,05,24,15,40,16.80
2017,05,24,15,41,16.70
2017,05,24,15,42,16.70
2017,05,24,15,43,16.50
2017,05,24,15,44,16.50
2017,05,24,15,45,16.50
2017,05,24,15,46,16.60
2017,05,24,15,47,16.70
2017,05,24,15,48,16.70
2017,05,24,15,49,16.70
2017,05,24,15,50,16.60
2017,05,24,15,51,16.50
2017,05,24,15,52,16.50
2017,05,24,15,53,16.60
2017,05,24,15,54,16.60
2017,05,24,15,55,16.60
2017,05,24,15,56,16.50
2017,05,24,15,57,16.50
2017,05,24,15,58,16.40
2017,05,24,15,59,16.40
2017,05,24,16,00,16.50
2017,05,24,16,01,16.50
2017,05,24,16,02,16.60
2017,05,24,16,03,16.60
2017,05,24,16,04,16.50
2017,05,24,16,05,16.50
2017,05,24,16,06,16.50
2017,05,24,16,07,16.50
2017,05,24,16,08,16.40
2017,05,24,16,09,16.30
2017,05,24,16,10,16.40
2017,05,24,16,11,16.40
2017,05,24,16,12,16.50
2017,05,24,16,13,16.50
2017,05,24,16,14,16.50
2017,05,24,16,15,16.50
2017,05,24,16,16,16.60
2017,05,24,16,17,16.60
2017,05,24,16,18,16.60
2017,05,24,16,19,16.50
2017,05,24,16,20,16.50
2017,05,24,16,21,16.50
2017,05,24,16,22,16.50
2017,05,24,16,23,16.60
2017,05,24,16,24,16.60
2017,05,24,16,25,16.70
2017,05,24,16,26,16.80
2017,05,24,16,27,16.80
2017,05,24,16,28,16.70
2017,05,24,16,29,16.70
2017,05,24,16,30,16.70
2017,05,24,16,31,16.60
2017,05,24,16,32,16.70
2017,05,24,16,33,16.70
2017,05,24,16,34,16.70
2017,05,24,16,35,16.60
2017,05,24,16,36,16.60
2017,05,24,16,37,16.70
2017,05,24,16,38,16.70
2017,05,24,16,39,16.80
2017,05,24,16,40,16.80
2017,05,24,16,41,16.70
2017,05,24,16,42,16.60
2017,05,24,16,43,16.60
2017,05,24,16,44,16.60
2017,05,24,16,45,16.60
2017,05,24,16,46,16.60
2017,05,24,16,47,16.50
2017,05,24,16,48,16.50
2017,05,24,16,49,16.50
2017,05,24,16,50,16.60
2017,05,24,16,51,16.70
2017,05,24,16,52,16.60
2017,05,24,16,53,16.60
2017,05,24,16,54,16.80
2017,05,24,16,55,16.80
2017,05,24,16,56,16.80
2017,05,24,16,57,16.80
2017,05,24,16,58,16.70
2017,05,24,16,59,16.70
2017,05,24,17,00,16.70
2017,05,24,17,01,16.60
2017,05,24,17,02,16.60
2017,05,24,17,03,16.60
2017,05,24,17,04,16.60
2017,05,24,17,05,16.60
2017,05,24,17,06,16.70
2017,05,24,17,07,16.70
2017,05,24,17,08,16.70
2017,05,24,17,09,16.70
2017,05,24,17,10,16.70
2017,05,24,17,11,16.70
2017,05,24,17,12,16.70
2017,05,24,17,13,16.70
2017,05,24,17,14,16.60
2017,05,24,17,15,16.60
2017,05,24,17,16,16.60
2017,05,24,17,17,16.60
2017,05,24,17,18,16.70
2017,05,24,17,19,16.70
2017,05,24,17,20,16.60
2017,05,24,17,21,16.60
2017,05,24,17,22,16.60
2017,05,24,17,23,16.60
2017,05,24,17,24,16.60
2017,05,24,17,25,16.60
2017,05,24,17,26,16.70
2017,05,24,17,27,16.70
2017,05,24,17,28,16.70
2017,05,24,17,29,16.70
2017,05,24,17,30,16.80
2017,05,24,17,31,16.90
2017,05,24,17,32,16.80
2017,05,24,17,33,16.80
2017,05,24,17,34,16.70